Location: Palmerston North
(40.3500°S, 175.6170°E)
Time: 13:53:51
(UTC+12:00)

COSMOS 2428 - Pass Details

Date: 24 January 2019
Orbit: 843 x 858 km, 71.0° (Epoch: 22 April)

Event Time Altitude Azimuth Distance (km) Brightness Sun altitude
Exits shadow 23:03:08 41° 60° (ENE) 1,223 3.1 -21.4°
Maximum altitude 23:03:39 42° 74° (ENE) 1,205 3.1 -21.4°
Drops below altitude 10° 23:09:04 10° 143° (SE) 2,517 5.4 -22.0°
Sets 23:11:39 0° 149° (SSE) 3,462 6.2 -22.3°
